Find Starlink 4591

NORAD ID: 53607 Int'l Des: 2022-104 Owner: SPXS Country: US Constellation: starlink operational
LEOCIRCULAR

現在のビュー

3D地球を読み込み中...

About Starlink 4591

Starlink 4591 (NORAD 53607) is a starlink constellation satellite (v1.5) launched Aug 28, 2022 by SPXS of US. It operates in LEO, CIRCULAR orbit with a mass of 300.00 kg.

Starlink 4591について

説明を読み込み中...

次回通過

Passes for default location (London). Set your location on the main map for personalized predictions.

高度履歴

Loading altitude history...

軌道要素

1 53607U 22104V 26175.25002315 .01278657 00000-0 42187-1 0 9998
2 53607 53.1610 119.7483 0001552 53.0493 335.2221 15.28005013 5849
Epoch: Jun 24, 2026 • Age: 11 hours

現在のステータス

高度 481.6 km
速度 7.63 km/s
衛星直下点 42.47°N, 8.95°W
打ち上げ日 Aug 28, 2022
運用期間 3.8 years
タイプ internet

技術仕様

分類 Payload
質量 300.00 kg
乾燥質量 290.00 kg
総質量 300.00 kg
長さ 0.20 m
直径 2.80 m
スパン 9.00 m
形状 Box + pan
製造者 SPXS
バスタイプ Starlink
フェーズステータス In Orbit
所有者/国 SPXS/US

Most Searched